Hourly Data Report for September 03, 2016

SHEARWATER RCS
NOVA SCOTIA

44°37'47.000" N
63°30'48.000" W
24.00 m
8205092
71264
AAW

Download Data

Hourly Data (September 2016)
Hourly Data Report for September 3, 2016
TIME Temp Definition
°C
Dew Point Definition
°C
Rel Hum Definition
%
Wind Dir Definition
10's deg

Wind Spd Definition
km/h
Visibility Definition
km
Stn Press Definition
kPa
Hmdx Definition


Wind Chill Definition


Weather Definition


00:00 11.0 8.8 86 32 6   101.59     LegendNANA
01:00 10.4 8.6 89 30 5   101.59     LegendNANA
02:00 10.8 8.9 88 32 7   101.60     LegendNANA
03:00 11.3 9.5 89 32 6   101.61     LegendNANA
04:00 11.9 10.0 88 30 4   101.64     LegendNANA
05:00 11.6 9.8 89 29 3   101.65     LegendNANA
06:00 10.6 9.2 91   0   101.64     LegendNANA
07:00 13.1 11.1 87   0   101.70     LegendNANA
08:00 15.2 11.1 76 31 8   101.72     LegendNANA
09:00 17.8 10.1 61 33 15   101.73     LegendNANA
10:00 18.6 7.1 47 33 18   101.73     LegendNANA
11:00 19.3 7.6 47 33 19   101.71     LegendNANA
12:00 20.4 6.5 40 32 15   101.69     LegendNANA
13:00 21.5 6.2 37 34 16   101.70     LegendNANA
14:00 21.0 5.9 37 32 18   101.71     LegendNANA
15:00 20.8 5.2 36 32 17   101.72     LegendNANA
16:00 21.1 6.8 39 30 15   101.73     LegendNANA
17:00 20.4 6.4 40 33 16   101.75     LegendNANA
18:00 19.3 6.7 44 33 14   101.80     LegendNANA
19:00 17.9 7.4 50 33 10   101.88     LegendNANA
20:00 16.6 7.3 54 36 11   102.00     LegendNANA
21:00 15.1 8.2 64 3 8   102.05     LegendNANA
22:00 14.3 8.7 69 2 7   102.08     LegendNANA
23:00 13.9 9.1 73 3 10   102.11     LegendNANA

Notes on Data Quality.

Legend

  • E = Estimated
  • M = Missing
  • NA = Not Available*
  • [empty] = Indicates an unobserved value
Date modified: